TimeEDT,TemperatureF,Dew PointF,Humidity,Sea Level PressureIn,VisibilityMPH,Wind Direction,Wind SpeedMPH,Gust SpeedMPH,PrecipitationIn,Events,Conditions,WindDirDegrees,DateUTC
12:56 AM,70.0,69.1,97,29.95,4.0,Calm,Calm,-,0.00,,Mostly Cloudy,0,2013-07-29 04:56:00
1:56 AM,71.1,69.1,93,29.96,8.0,Calm,Calm,-,N/A,,Mostly Cloudy,0,2013-07-29 05:56:00
2:56 AM,70.0,68.0,93,29.96,8.0,Calm,Calm,-,0.01,Rain,Light Rain,0,2013-07-29 06:56:00
3:56 AM,70.0,68.0,93,29.97,10.0,Calm,Calm,-,0.00,,Mostly Cloudy,0,2013-07-29 07:56:00
4:56 AM,66.9,66.0,97,29.97,2.5,Calm,Calm,-,N/A,,Mostly Cloudy,0,2013-07-29 08:56:00
5:20 AM,68.0,66.2,94,29.98,0.5,Calm,Calm,-,N/A,Fog,Fog,0,2013-07-29 09:20:00
5:51 AM,66.2,66.2,100,29.98,0.2,Calm,Calm,-,N/A,Fog,Fog,0,2013-07-29 09:51:00
5:56 AM,66.9,66.0,97,29.98,0.2,Calm,Calm,-,N/A,Fog,Fog,0,2013-07-29 09:56:00
6:20 AM,66.2,66.2,100,29.98,1.0,Calm,Calm,-,N/A,,Scattered Clouds,0,2013-07-29 10:20:00
6:56 AM,69.1,66.9,93,29.98,0.2,Calm,Calm,-,N/A,Fog,Fog,0,2013-07-29 10:56:00
7:11 AM,69.8,68.0,94,29.99,1.0,Variable,3.5,-,N/A,,Scattered Clouds,0,2013-07-29 11:11:00
7:56 AM,69.1,68.0,96,30.01,1.0,WNW,9.2,-,N/A,,Mostly Cloudy,290,2013-07-29 11:56:00
8:10 AM,69.8,68.0,94,30.02,2.0,WNW,4.6,-,N/A,,Scattered Clouds,300,2013-07-29 12:10:00
8:37 AM,71.6,68.0,88,30.03,7.0,North,4.6,-,N/A,,Scattered Clouds,350,2013-07-29 12:37:00
8:56 AM,73.9,66.9,79,30.01,10.0,North,4.6,-,N/A,,Scattered Clouds,350,2013-07-29 12:56:00
9:56 AM,75.9,64.0,67,30.02,10.0,Calm,Calm,-,N/A,,Partly Cloudy,0,2013-07-29 13:56:00
10:56 AM,78.1,63.0,60,30.02,10.0,Calm,Calm,-,N/A,,Partly Cloudy,0,2013-07-29 14:56:00
11:56 AM,79.0,62.1,56,30.02,10.0,NW,4.6,-,N/A,,Partly Cloudy,320,2013-07-29 15:56:00
12:56 PM,81.0,64.9,58,30.00,10.0,Variable,3.5,-,N/A,,Partly Cloudy,0,2013-07-29 16:56:00
1:56 PM,82.0,62.1,51,29.99,10.0,SSE,4.6,-,N/A,,Scattered Clouds,150,2013-07-29 17:56:00
2:56 PM,82.0,62.1,51,29.99,10.0,West,10.4,17.3,N/A,,Scattered Clouds,280,2013-07-29 18:56:00
3:56 PM,82.0,60.1,47,29.99,10.0,West,9.2,-,N/A,,Scattered Clouds,280,2013-07-29 19:56:00
4:56 PM,82.0,57.9,44,30.00,10.0,West,8.1,-,N/A,,Scattered Clouds,260,2013-07-29 20:56:00
5:56 PM,81.0,55.9,42,30.00,10.0,West,9.2,-,N/A,,Scattered Clouds,270,2013-07-29 21:56:00
6:56 PM,78.1,54.0,43,30.01,10.0,West,6.9,-,N/A,,Partly Cloudy,260,2013-07-29 22:56:00
7:56 PM,75.0,53.1,46,30.03,10.0,West,4.6,-,N/A,,Partly Cloudy,260,2013-07-29 23:56:00
8:56 PM,70.0,55.0,59,30.05,10.0,Calm,Calm,-,N/A,,Partly Cloudy,0,2013-07-30 00:56:00
9:56 PM,70.0,55.0,59,30.07,10.0,West,4.6,-,N/A,,Partly Cloudy,280,2013-07-30 01:56:00
10:56 PM,70.0,55.0,59,30.08,10.0,WNW,4.6,-,N/A,,Clear,290,2013-07-30 02:56:00
11:56 PM,66.9,54.0,63,30.09,10.0,West,4.6,-,N/A,,Clear,280,2013-07-30 03:56:00